SCP
0 0 0 0 0 0 0 0 0 0 0 0 0 0 0 0 0 0 0 0 0 0
0 0 0 0 0 0 0 0 0 0 0 0 0 0 0 0 0 0 0 0 0 0
0 0 0 0 0 0 0 0 0 0 0 0 0 0 0 0 0 0 0 0 0 0
0 0 0 0 0 0 0 0 0 0 0 0 0 0 0 0 0 0 0 0 0 0
0 0 0 0 0 0 0 0 0 0 0 0 0 0 0 0 0 0 0 0 0 0
0 0 0 0 0 0 0 0 0 0 0 0 0 0 0 0 0 0 0 0 0 0
0 0 0 0 0 0 0 0 0 0 0 0 0 0 0 0 0 0 0 0 0 0
0 0 0 0 0 0 0 0 0 0 0 0 0 0 0 0 0 0 0 0 0 0
0 0 0 0 0 0 0 0 0 0 0 0 0 0 0 0 0 0 0 0 0 0
0 0 0 0 0 0 0 0 0 0 0 0 0 0 0 0 0 0 0 0 0 0
0 0 0 0 0 0 0 0 0 0 0 0 0 0 0 0 0 0 0 0 0 0
0 0 0 0 0 0 0 0 0 0 0 0 0 0 0 0 0 0 0 0 0 0
-0 -0 -0 -0 -0 -0 0 0 0 0 0 0 0 0 0 0 0 0 0 0 0 0
-0 0 0 0 0 0 0 0 0 0 0 0 0 0 0 0 0 0 0 0 0 0
Wind_Speed_500mb
28 32 36 40 44 48 50 50 47 49 50 59 60 63 65 65 71 72 75 76 80 91
9 15 21 26 31 36 40 43 45 48 51 56 59 61 65 68 74 71 77 72 82 76
3 2 8 14 20 26 31 35 39 41 43 48 53 57 61 67 71 73 78 79 80 82
9 4 3 8 13 17 22 26 30 34 39 44 49 54 58 63 68 72 76 78 80 80
15 17 18 20 23 27 30 34 37 39 42 44 47 52 57 61 65 71 75 76 77 76
20 24 28 31 35 39 43 45 48 51 53 53 53 54 56 60 64 69 72 73 72 71
24 28 32 35 39 42 46 48 51 54 57 58 61 63 62 62 65 67 68 68 68 67
28 31 34 37 40 43 46 50 54 56 57 58 59 56 57 60 63 65 67 67 67 67
27 30 34 37 38 40 42 44 47 51 56 59 60 60 59 57 58 59 64 67 67 68
39 40 41 41 42 44 45 47 47 46 48 51 54 59 62 63 64 63 62 62 64 66
41 43 44 46 48 49 48 50 50 48 48 49 46 51 54 57 59 59 59 59 59 60
48 50 50 50 51 54 56 56 56 54 53 53 49 52 54 56 57 60 61 57 53 54
46 49 51 53 54 56 59 60 61 62 61 61 59 51 52 53 56 59 58 57 53 50
45 50 55 57 59 62 64 65 64 63 60 62 63 58 53 52 54 55 56 55 49 46
Wind_Direction_500mb
245 248 253 257 261 262 267 271 271 269 265 265 267 269 269 271 272 273 271 273 274 273
229 237 244 251 255 259 263 267 267 264 259 255 259 263 264 264 264 267 270 269 272 275
93 267 275 274 271 270 267 268 267 266 266 266 263 262 262 261 264 262 265 267 268 270
58 47 310 283 279 278 280 278 276 275 272 269 269 268 267 267 267 267 268 270 271 272
324 320 313 308 302 298 294 290 286 283 283 280 275 271 268 268 268 269 271 272 272 273
311 311 308 307 304 300 297 293 291 290 289 286 283 280 275 272 270 269 269 269 269 271
326 320 318 314 310 306 303 300 297 294 291 288 287 286 285 280 277 274 272 271 271 271
340 335 329 323 317 313 308 303 299 295 292 290 288 287 284 280 277 275 274 271 271 272
337 334 332 329 324 321 318 314 307 301 297 292 290 288 283 280 277 277 276 276 276 274
331 329 327 327 325 325 325 323 320 315 307 301 296 288 285 285 283 280 278 279 279 279
323 322 322 322 322 321 320 319 318 318 315 312 310 301 296 289 284 282 282 281 280 280
321 321 320 320 318 317 316 316 315 314 312 310 311 308 306 301 294 290 288 285 285 282
321 322 322 323 322 321 320 318 315 312 311 311 308 304 302 301 298 295 295 294 291 287
315 316 317 318 319 318 317 316 314 311 309 309 307 305 303 299 295 296 295 293 295 287
Wind_Speed_850mb
28 32 36 40 44 48 50 50 47 49 50 59 60 63 65 65 71 72 75 76 80 91
9 15 21 26 31 36 40 43 45 48 51 56 59 61 65 68 74 71 77 72 82 76
3 2 8 14 20 26 31 35 39 41 43 48 53 57 61 67 71 73 78 79 80 82
9 4 3 8 13 17 22 26 30 34 39 44 49 54 58 63 68 72 76 78 80 80
15 17 18 20 23 27 30 34 37 39 42 44 47 52 57 61 65 71 75 76 77 76
20 24 28 31 35 39 43 45 48 51 53 53 53 54 56 60 64 69 72 73 72 71
24 28 32 35 39 42 46 48 51 54 57 58 61 63 62 62 65 67 68 68 68 67
28 31 34 37 40 43 46 50 54 56 57 58 59 56 57 60 63 65 67 67 67 67
27 30 34 37 38 40 42 44 47 51 56 59 60 60 59 57 58 59 64 67 67 68
39 40 41 41 42 44 45 47 47 46 48 51 54 59 62 63 64 63 62 62 64 66
41 43 44 46 48 49 48 50 50 48 48 49 46 51 54 57 59 59 59 59 59 60
48 50 50 50 51 54 56 56 56 54 53 53 49 52 54 56 57 60 61 57 53 54
46 49 51 53 54 56 59 60 61 62 61 61 59 51 52 53 56 59 58 57 53 50
45 50 55 57 59 62 64 65 64 63 60 62 63 58 53 52 54 55 56 55 49 46
Wind_Direction_850mb
245 248 253 257 261 262 267 271 271 269 265 265 267 269 269 271 272 273 271 273 274 273
229 237 244 251 255 259 263 267 267 264 259 255 259 263 264 264 264 267 270 269 272 275
93 267 275 274 271 270 267 268 267 266 266 266 263 262 262 261 264 262 265 267 268 270
58 47 310 283 279 278 280 278 276 275 272 269 269 268 267 267 267 267 268 270 271 272
324 320 313 308 302 298 294 290 286 283 283 280 275 271 268 268 268 269 271 272 272 273
311 311 308 307 304 300 297 293 291 290 289 286 283 280 275 272 270 269 269 269 269 271
326 320 318 314 310 306 303 300 297 294 291 288 287 286 285 280 277 274 272 271 271 271
340 335 329 323 317 313 308 303 299 295 292 290 288 287 284 280 277 275 274 271 271 272
337 334 332 329 324 321 318 314 307 301 297 292 290 288 283 280 277 277 276 276 276 274
331 329 327 327 325 325 325 323 320 315 307 301 296 288 285 285 283 280 278 279 279 279
323 322 322 322 322 321 320 319 318 318 315 312 310 301 296 289 284 282 282 281 280 280
321 321 320 320 318 317 316 316 315 314 312 310 311 308 306 301 294 290 288 285 285 282
321 322 322 323 322 321 320 318 315 312 311 311 308 304 302 301 298 295 295 294 291 287
315 316 317 318 319 318 317 316 314 311 309 309 307 305 303 299 295 296 295 293 295 287